Location: Dana
(41.8364°N, 106.7042°W)
Time: 01:19:51
(UTC+00:00)

Transit 4A - Pass Details

Date: 13 May 2026
Orbit: 860 x 980 km, 66.8° (Epoch: 6 June)

Event Time Altitude Azimuth Distance (km) Brightness Sun altitude
Rises 17:04:17 0° 254° (WSW) 3,564 10.7 55.6°
Reaches altitude 10° 17:07:23 10° 269° (W) 2,646 10.1 56.1°
Maximum altitude 17:12:06 22° 319° (NW) 1,943 9.5 56.8°
Drops below altitude 10° 17:16:55 10° 9° (N) 2,711 10.3 57.5°
Sets 17:20:10 0° 24° (NNE) 3,675 10.9 58.0°
